Warsaw, Polska

18:25 CEST dnia 27-marzec-2017 (GMT +0200)
Okecie

Pogoda Historia dla EPWA - luty, 2017

Change the Weather History Date:

Piątek, luty 17, 2017

  Actual Average Record
Temperature  
Temperatura średnia 32 ° F -  
Temperatura maksymalna 37 ° F 39 ° F 50 ° F (2002)
Temperatura minimalna 26 ° F 26 ° F 1 ° F (2003)
Degree Days  
stopnio-dni grzewczych 34    
Moisture  
Punkt rosy 33 ° F    
Average Humidity 93    
Maximum Humidity 100    
Minimum Humidity 75    
Opady  
Opady 0.16 cali 0.03 cali - ()
Ciśnienie na poziomie morza  
Ciśnienie na poziomie morza 30.11 cali    
Wiatr  
Prędkość wiatru 4 mph ()    
Maksymalna prędkość wiatru 9 mph    
Max Gust Speed -    
Widzialność 1.8 mil    
Wydarzenia mgła , deszcz    
Averages and records for this station are not official NWS values.
T = Trace of Precipitation, MM = Missing Value Source: Averaged Metar Reports

Daily Weather History Graph

Daily Weather History Graph

Search for Another Location

Airport or City:

Trip Planner

Search our weather history database for the weather conditions in past years. The results will help you decide how hot, cold, wet, or windy it might be!

Date:

Astronomia

Feb. 17, 2017 Wschód Zachów
Aktualny czas 06:47 CET 16:53 CET
Zmierzch cywilny 06:12 CET 17:28 CET
Zmierzch żeglarski 05:33 CET 18:08 CET
świt/zmierzch astronomiczny 04:53 CET 18:47 CET
Księżyc Księżyc nie wschodzi 09:35 CET (2/17)
całkowite oświetlenie 11h 16m
Długość dnia
10h 06m
Zmniejszający się Księżyc, 63% of the Moon is Illuminated
Luty 17
Zmniejszający się Księżyc
Luty 18
Ostatnia kwadra
Luty 26
Nowy
Marzec 5
Pierwsza kwadra
Marzec 12
Pełnia Księżyca

Hourly Weather History & Observations

czas (CET) Temp. czynnik chłodzący wiatru Punkt rosy Wilgotność Ciśnienie Widzialność Wind Dir Prędkość wiatru prędkość w porywie Precip Wydarzenia Warunki pogodowe
12:00 AM 32.0 ° F 28.7 ° F 28.4 ° F 87% 30.21 cali 3.7 mi zachodni 3.5 mph - N/A   nie podane
12:30 AM 33.8 ° F 30.8 ° F 28.4 ° F 81% 30.21 cali 4.3 mi zachodni 3.5 mph - N/A   nie podane
1:00 AM 29 ° F - 25 ° F 79% 30.25 cali 4 mi zachodni 2.2 mph - -   zamglenia
1:00 AM 30.2 ° F 26.7 ° F 26.6 ° F 86% 30.21 cali 3.7 mi ZdPdZd 3.5 mph - N/A   nie podane
1:30 AM 30.2 ° F - 26.6 ° F 86% 30.21 cali 3.1 mi PdZd 2.3 mph - N/A   zamglenia
2:00 AM 29 ° F - 26 ° F 83% 30.23 cali 3 mi południowy 2.2 mph - -   zamglenia
2:00 AM 26.6 ° F - 24.8 ° F 93% 30.21 cali 3.1 mi PdPdZd 2.3 mph - N/A   zamglenia
2:30 AM 24.8 ° F - 23.0 ° F 93% 30.18 cali 3.1 mi południowy 2.3 mph - N/A   zamglenia
3:00 AM 27 ° F - 23 ° F 80% 30.21 cali 3 mi południowy 2.2 mph - -   zamglenia
3:00 AM 26.6 ° F 22.6 ° F 24.8 ° F 93% 30.18 cali 3.1 mi PdPdZd 3.5 mph - N/A   zamglenia
3:30 AM 28.4 ° F 24.6 ° F 26.6 ° F 93% 30.15 cali 3.1 mi PdPdZd 3.5 mph - N/A   zamglenia
4:00 AM 29 ° F - 27 ° F 90% 30.19 cali 3 mi PdPdWs 2.2 mph - -   zamglenia
4:00 AM 30.2 ° F 25.4 ° F 28.4 ° F 93% 30.15 cali 3.1 mi południowy 4.6 mph - N/A   zamglenia
4:30 AM 32.0 ° F 28.7 ° F 28.4 ° F 87% 30.15 cali 3.1 mi południowy 3.5 mph - N/A   zamglenia
5:00 AM 31 ° F - 28 ° F 84% 30.17 cali 3 mi PdPdWs 2.2 mph - -   zamglenia
5:00 AM 32.0 ° F 27.5 ° F 28.4 ° F 87% 30.15 cali 3.1 mi południowy 4.6 mph - N/A   przewaga chmur
5:30 AM 32.0 ° F 27.5 ° F 28.4 ° F 87% 30.12 cali 3.1 mi południowy 4.6 mph - N/A   przewaga chmur
6:00 AM 33 ° F - 29 ° F 78% 30.15 cali 3 mi PdPdWs 4.5 mph - -   zamglenia
6:00 AM 32.0 ° F 26.4 ° F 30.2 ° F 93% 30.12 cali 3.1 mi południowy 5.8 mph - N/A   przewaga chmur
6:30 AM 33.8 ° F 30.8 ° F 30.2 ° F 87% 30.12 cali 3.1 mi południowy 3.5 mph - N/A   przewaga chmur
7:00 AM 34 ° F - 29 ° F 75% 30.14 cali 2 mi PdPdWs 4.5 mph - - deszcz lekki deszcz
7:00 AM 33.8 ° F 28.6 ° F 30.2 ° F 87% 30.09 cali - południowy 5.8 mph - N/A deszcz lekki deszcz
7:30 AM 33.8 ° F 28.6 ° F 30.2 ° F 87% 30.12 cali 1.8 mi zachodni 5.8 mph - N/A deszcz lekki deszcz
8:00 AM 34 ° F - 32 ° F 88% 30.15 cali 1 mi PdPdZd 2.2 mph - - deszcz deszcz
8:00 AM 33.8 ° F - 32.0 ° F 93% 30.12 cali 1.3 mi zmienny 2.3 mph - N/A deszcz deszcz
8:30 AM 33.8 ° F - 32.0 ° F 93% 30.09 cali 1.1 mi zmienny 2.3 mph - N/A deszcz deszcz
9:00 AM 34 ° F - 33 ° F 97% 30.12 cali 1 mi PdWs 4.5 mph - -   marznący deszcz
9:00 AM 33.8 ° F 28.6 ° F 33.8 ° F 100% 30.09 cali 0.7 mi PdPdWs 5.8 mph - N/A deszcz marznący deszcz
10:00 AM 36 ° F - 35 ° F 92% 30.10 cali 1 mi południowy 4.5 mph - - deszcz marznąca mżawka
10:00 AM 35.6 ° F 32.8 ° F 35.6 ° F 100% 30.06 cali 0.7 mi południowy 3.5 mph - N/A   przewaga chmur
10:30 AM 35.6 ° F 31.7 ° F 33.8 ° F 93% 30.06 cali 0.7 mi PdZd 4.6 mph - N/A   przewaga chmur
11:00 AM 36 ° F - 35 ° F 94% 30.10 cali 1 mi południowy 4.5 mph - - deszcz lekka mżawka
11:00 AM 35.6 ° F 30.7 ° F 35.6 ° F 100% 30.06 cali 0.7 mi PdZd 5.8 mph - N/A   pochmurno
11:30 AM 37.4 ° F 34.9 ° F 35.6 ° F 93% 30.06 cali 0.6 mi PdZd 3.5 mph - N/A deszcz lekki deszcz
12:00 PM 37 ° F - 36 ° F 92% 30.09 cali 1 mi ZdPdZd 2.2 mph - - deszcz lekki deszcz
12:00 PM 37.4 ° F 34.9 ° F 35.6 ° F 93% 30.06 cali 0.6 mi PdZd 3.5 mph - N/A deszcz lekki deszcz
12:30 PM 37.4 ° F 34.9 ° F 35.6 ° F 93% 30.06 cali 0.7 mi PdZd 3.5 mph - N/A deszcz lekki deszcz
1:00 PM 37 ° F - 36 ° F 92% 30.08 cali 1 mi zachodni 6.7 mph - - deszcz lekki deszcz
1:00 PM 37.4 ° F 33.8 ° F 35.6 ° F 93% 30.04 cali 0.8 mi zachodni 4.6 mph - N/A deszcz lekki deszcz
1:30 PM 37.4 ° F 32.8 ° F 35.6 ° F 93% 30.04 cali 0.8 mi zachodni 5.8 mph - N/A deszcz lekki deszcz
2:00 PM 37 ° F - 36 ° F 92% 30.07 cali 1 mi zachodni 8.9 mph - - deszcz lekki deszcz
2:00 PM 37.4 ° F 32.1 ° F 35.6 ° F 93% 30.04 cali 0.7 mi zachodni 6.9 mph - N/A deszcz lekki deszcz
2:30 PM 37.4 ° F 32.1 ° F 35.6 ° F 93% 30.04 cali 0.6 mi zachodni 6.9 mph - N/A deszcz lekki deszcz
3:00 PM 36 ° F - 36 ° F 99% 30.08 cali 1 mi zachodni 8.9 mph - - deszcz lekki deszcz
3:00 PM 37.4 ° F 32.1 ° F 35.6 ° F 93% 30.04 cali 0.6 mi zachodni 6.9 mph - N/A deszcz lekki deszcz
3:30 PM 37.4 ° F 32.1 ° F 35.6 ° F 93% 30.04 cali 0.5 mi zachodni 6.9 mph - N/A mgła , deszcz lekki deszcz
4:00 PM 36 ° F - 36 ° F 100% 30.08 cali 1 mi zachodni 8.9 mph - - deszcz lekki deszcz
4:00 PM 37.4 ° F 31.4 ° F 35.6 ° F 93% 30.04 cali 0.6 mi zachodni 8.1 mph - N/A mgła , deszcz lekki deszcz
4:30 PM 37.4 ° F 31.4 ° F 35.6 ° F 93% 30.04 cali 0.6 mi zachodni 8.1 mph - N/A deszcz lekki deszcz
5:00 PM 36 ° F - 36 ° F 100% 30.09 cali 1 mi zachodni 8.9 mph - - deszcz lekki deszcz
5:00 PM 37.4 ° F 31.4 ° F 35.6 ° F 93% 30.06 cali 0.6 mi zachodni 8.1 mph - N/A mgła , deszcz lekki deszcz
5:30 PM 37.4 ° F 32.1 ° F 35.6 ° F 93% 30.06 cali 0.4 mi zachodni 6.9 mph - N/A mgła mgła
6:00 PM 36 ° F - 36 ° F 100% 30.11 cali 0 mi zachodni 8.9 mph - - mgła częściowe zamglenia
6:00 PM 37.4 ° F 31.4 ° F 35.6 ° F 93% 30.06 cali 0.3 mi zachodni 8.1 mph - N/A mgła mgła
6:30 PM 37.4 ° F 31.4 ° F 35.6 ° F 93% 30.06 cali - zachodni 8.1 mph - N/A mgła mgła
7:00 PM 36 ° F - 36 ° F 99% 30.12 cali 0 mi zachodni 8.9 mph - - mgła częściowe zamglenia
7:00 PM 35.6 ° F 29.2 ° F 35.6 ° F 100% 30.09 cali 0.5 mi zachodni 8.1 mph - N/A mgła mgła
7:30 PM 35.6 ° F 29.9 ° F 35.6 ° F 100% 30.09 cali 0.7 mi zachodni 6.9 mph - N/A   pochmurno
8:00 PM 35 ° F - 35 ° F 100% 30.13 cali 2 mi zachodni 6.7 mph - - mgła lekka mgła
8:00 PM 35.6 ° F 30.7 ° F 35.6 ° F 100% 30.09 cali 1.6 mi zachodni 5.8 mph - N/A   przewaga chmur
8:30 PM 35.6 ° F 31.7 ° F 33.8 ° F 93% 30.09 cali - zachodni 4.6 mph - N/A   przewaga chmur
9:00 PM 33.8 ° F 30.8 ° F 33.8 ° F 100% 30.09 cali 3.1 mi zachodni 3.5 mph - N/A   przewaga chmur
9:30 PM 35.6 ° F 32.8 ° F 33.8 ° F 93% 30.09 cali 2.8 mi ZdPdZd 3.5 mph - N/A   pochmurno
10:00 PM 36 ° F - 35 ° F 96% 30.13 cali 2 mi ZdPdZd 2.2 mph - -   zamglenia
10:00 PM 35.6 ° F 32.8 ° F 35.6 ° F 100% 30.09 cali 2.5 mi ZdPdZd 3.5 mph - N/A   przewaga chmur
10:30 PM 35.6 ° F 32.8 ° F 35.6 ° F 100% 30.09 cali - ZdPdZd 3.5 mph - N/A   przewaga chmur
11:00 PM 36 ° F - 35 ° F 95% 30.13 cali 3 mi ZdPdZd 2.2 mph - -   zamglenia
11:00 PM 35.6 ° F 32.8 ° F 35.6 ° F 100% 30.09 cali - PdZd 3.5 mph - N/A   przewaga chmur
11:30 PM 35.6 ° F 32.8 ° F 35.6 ° F 100% 30.09 cali 2.2 mi PdZd 3.5 mph - N/A   przewaga chmur